Tracking 18852 objects as of 23-Nov-2017
HD Live streaming from Space Station
objects crossing your sky now

COSMOS 2328

Track COSMOS 2328 now!
10-day predictions
COSMOS 2328 is classified as:


NORAD ID: 23790
Int'l Code: 1996-009D
Perigee: 1,414.4 km
Apogee: 1,424.9 km
Inclination: 82.6 °
Period: 114.1 minutes
Semi major axis: 7790 km
RCS: 1.1353 m2 (large)
Launch date: February 19, 1996
Source: Commonwealth of Independent States (former USSR) (CIS)
Launch site: PLESETSK MISSILE AND SPACE COMPLEX (PKMTR)
aabbcc
Your satellite tracking list
Your tracking list is empty




NASA's NSSDC Master Catalog

Two Line Element Set (TLE):
1 23790U 96009D   17326.55943501 -.00000002 +00000-0 -71877-4 0  9994
2 23790 082.5753 156.9304 0006732 310.1436 049.9065 12.62529310002665
Source of the keplerian elements: AFSPC